Flag for Kenya Weather past 2 weeks in Nairobi, Kenya

Now
61 °F

Passing clouds.


Feels Like: 61 °F
Forecast: 56 / 69 °F
Wind: 5 mph from South

Location: Kenyatta Airport

Current Time: Aug 2, 2015 at 6:17:55 AM

Latest Report: Aug 2, 2015 at 5:00 AM


Visibility: N/A

Pressure: 30.21 "Hg (24.77 "Hg at 1680m altitude)

Humidity: 88%

Dew point: 57 °F

Location of NairobiLocation

Historic Weather in Nairobi — Graph

°F

Nairobi temperature yesterday

Maximum temperature yesterday: 77 °F (at 2:00 PM)
Minimum temperature yesterday: 57 °F (at 4:00 AM)
Average temperature yesterday: 67 °F

Past Weeks' High & Low Weather Summary

 TemperatureHumidityPressure
High82 °F (Jul 31, 3:00 PM)100% (Jul 18, 7:00 AM)30.30 "Hg (Jul 18, 7:00 AM)
Low50 °F (Jul 18, 7:00 AM)35% (Jul 31, 4:00 PM)30.07 "Hg (Jul 31, 4:00 PM)
Average66 °F73%30.21 "Hg
* Reported Jul 18 5:00 AM — Aug 2 5:00 AM, Nairobi, Weather by CustomWeather, © 2015

Note: Actual official high and low records may vary slightly from our data, if they occured in-between our weather recording intervals... More about our weather records

Advertising

Nairobi weather history for previous 24 hours

 ConditionsComfort  
Time TempWeatherWind HumidityBarometerVisibility
5:00 AM
Sun, Aug 2
61 °FPassing clouds.5 mph88%30.21 "HgN/A
4:00 AM63 °FPassing clouds.5 mph83%30.21 "HgN/A
2:00 AM63 °FPassing clouds.5 mph83%30.24 "HgN/A
1:00 AM64 °FPassing clouds.10 mph73%30.24 "HgN/A
12:00 AM64 °FPassing clouds.9 mph73%30.24 "HgN/A
11:30 PM
Sat, Aug 1
66 °FPassing clouds.12 mph68%30.24 "HgN/A
11:00 PM66 °FPassing clouds.9 mph68%30.24 "HgN/A
10:00 PM68 °FPassing clouds.6 mph69%30.24 "HgN/A
9:00 PM68 °FPassing clouds.9 mph69%30.21 "HgN/A
8:00 PM68 °FPassing clouds.5 mph73%30.18 "HgN/A
7:30 PM68 °FPassing clouds.13 mph69%30.18 "HgN/A
7:00 PM68 °FPassing clouds.10 mph73%30.18 "HgN/A
6:00 PM66 °FPartly sunny.3 mph88%30.15 "HgN/A
5:00 PM73 °FScattered showers. Partly sunny.8 mph61%30.15 "HgN/A
4:00 PM75 °FPartly sunny.12 mph57%30.12 "HgN/A
3:30 PM77 °FBroken clouds.12 mph54%30.12 "HgN/A
3:00 PM77 °FBroken clouds.9 mph54%30.27 "HgN/A
2:30 PM77 °FBroken clouds.7 mph54%30.15 "HgN/A
2:00 PM77 °FPartly sunny.8 mph54%30.18 "HgN/A
1:30 PM75 °FPartly sunny.8 mph57%30.18 "HgN/A
1:00 PM75 °FPartly sunny.8 mph57%30.21 "HgN/A
12:30 PM72 °FBroken clouds.7 mph65%30.21 "HgN/A
12:00 PM72 °FPartly sunny.9 mph69%30.24 "HgN/A
11:00 AM70 °FScattered clouds.6 mph69%30.24 "HgN/A
10:30 AM68 °FScattered clouds.5 mph73%30.24 "HgN/A
10:00 AM64 °FPartly sunny.2 mph83%30.24 "HgN/A
9:30 AM63 °FBroken clouds.No wind83%30.24 "HgN/A
9:00 AM61 °FPartly sunny.1 mph94%30.24 "HgN/A
8:30 AM61 °FPartly sunny.3 mph88%30.24 "HgN/A
8:00 AM59 °FBroken clouds.3 mph94%30.21 "HgN/A
7:00 AM59 °FPartly sunny.5 mph88%30.18 "HgN/A
6:00 AM57 °FPassing clouds.2 mph94%30.18 "HgN/A
Weather by CustomWeather, © 2015

See weather overviewHow to use our weather pages